Date String (YYYY-MM-DD hh:mm:ss) UTC,Instrument flags,absolute air pressure of the measurement (hPa),sample flow rate (lpm),inlet stack bypass flow (lpm),air temperature of the measurement (°C),ambient temperature measured by the external sensor (°C),aerosol sample conditioner tube jacket temperature (°C),OPC LED temperature (°C),internal box temperature (°C),relative humidity of the measurement (%),span deviation,mass concentration of particles derived from Lorenz-Mie calculation of OPC scattering (μg/m³),mass concentration of particles derived from Lorenz-Mie calculation of OPC scattering (μg/m³),mass concentration of particles derived from Lorenz-Mie calculation of OPC scattering (μg/m³)
DateTimeUTC,F1_M11,P_M11,Q1_M11,Q2_M11,T1_M11,T2_M11,T3_M11,T4_M11,T5_M11,U1_M11,ZSPAN_M11,X0_M11,X2_M11,X1_M11
2023-10-24 23:00:00,SystemResetWarning,0825.2,4.99,000.00,028.4,026.8,000.0,036.9,030.1,20.0,0000.0,0028.33,0007.37,0004.75
2023-10-24 23:01:00,SystemResetWarning,0825.3,4.99,000.00,028.4,026.9,000.0,036.9,030.2,20.0,0000.0,0027.71,0007.33,0004.78
2023-10-24 23:02:00,SystemResetWarning,0825.3,5.00,000.00,028.4,027.1,000.0,036.9,030.2,20.1,0000.0,0029.23,0007.31,0004.79
2023-10-24 23:03:00,SystemResetWarning,0825.3,5.00,000.00,028.5,027.2,000.0,036.9,030.3,20.0,0000.0,0029.74,0007.37,0004.78
2023-10-24 23:04:00,SystemResetWarning,0825.3,5.00,000.00,028.5,027.4,000.0,036.9,030.3,20.0,0000.0,0029.13,0007.44,0004.78
2023-10-24 23:05:00,SystemResetWarning,0825.3,5.00,000.00,028.6,027.5,000.0,036.9,030.3,20.0,0000.0,0028.05,0007.37,0004.78
2023-10-24 23:06:00,SystemResetWarning,0825.3,5.00,000.00,028.6,027.5,000.0,036.9,030.4,19.8,0000.0,0027.77,0007.35,0004.76
2023-10-24 23:07:00,SystemResetWarning,0825.4,5.00,000.00,028.6,027.6,000.0,037.0,030.4,19.7,0000.0,0029.44,0007.41,0004.76
2023-10-24 23:08:00,SystemResetWarning,0825.3,5.01,000.00,028.7,027.7,000.0,037.0,030.5,19.7,0000.0,0029.61,0007.44,0004.76
2023-10-24 23:09:00,SystemResetWarning,0825.3,5.01,000.00,028.7,027.8,000.0,037.0,030.5,19.7,0000.0,0030.97,0007.56,0004.77
2023-10-24 23:10:00,SystemResetWarning,0825.3,5.00,000.00,028.8,027.8,000.0,037.1,030.6,19.5,0000.0,0032.23,0007.63,0004.77
2023-10-24 23:11:00,SystemResetWarning,0825.4,4.99,000.00,028.8,027.5,000.0,037.1,030.6,19.5,0000.0,0032.85,0007.66,0004.77
2023-10-24 23:12:00,SystemResetWarning,0825.3,4.99,000.00,028.8,025.7,000.0,037.0,030.4,19.5,0000.0,0033.36,0007.78,0004.77
2023-10-24 23:13:00,SystemResetWarning,0825.3,5.01,000.00,028.7,024.9,000.0,037.0,030.3,19.5,0000.0,0031.68,0007.91,0004.78
2023-10-24 23:14:00,SystemResetWarning,0825.3,5.01,000.00,028.6,025.0,000.0,037.0,030.1,19.6,0000.0,0031.93,0007.94,0004.79
2023-10-24 23:15:00,SystemResetWarning,0825.3,5.00,000.00,028.5,025.3,000.0,037.0,030.0,19.7,0000.0,0033.06,0007.90,0004.80
2023-10-24 23:16:00,SystemResetWarning,0825.4,5.00,000.00,028.5,025.7,000.0,037.0,030.0,19.7,0000.0,0034.28,0007.85,0004.79
2023-10-24 23:17:00,SystemResetWarning,0825.4,4.99,000.00,028.5,026.0,000.0,037.0,030.1,19.7,0000.0,0034.65,0007.85,0004.78
2023-10-24 23:18:00,SystemResetWarning,0825.3,5.00,000.00,028.5,026.3,000.0,037.0,030.1,19.7,0000.0,0033.18,0007.82,0004.77
2023-10-24 23:19:00,SystemResetWarning,0825.4,5.01,000.00,028.5,026.6,000.0,037.0,030.2,19.7,0000.0,0033.19,0007.78,0004.76
2023-10-24 23:20:00,SystemResetWarning,0825.4,5.01,000.00,028.5,026.8,000.0,037.0,030.2,19.6,0000.7,0031.88,0007.68,0004.77
2023-10-24 23:21:00,SystemResetWarning,0825.4,4.99,000.00,028.6,027.0,000.0,037.0,030.3,19.5,0002.7,0032.05,0007.67,0004.78
2023-10-24 23:22:00,SystemResetWarning,0825.4,5.00,000.00,028.6,027.2,000.0,037.0,030.3,19.5,0001.9,0032.53,0007.69,0004.80
2023-10-24 23:23:00,SystemResetWarning,0825.4,5.00,000.00,028.6,027.4,000.0,037.0,030.4,19.4,0000.0,0032.63,0007.67,0004.82
2023-10-24 23:24:00,SystemResetWarning,0825.4,5.00,000.00,028.7,027.5,000.0,037.0,030.4,19.4,0001.0,0032.86,0007.63,0004.83
2023-10-24 23:25:00,SystemResetWarning,0825.4,5.00,000.00,028.7,027.6,000.0,037.1,030.5,19.4,0002.8,0031.49,0007.67,0004.84
2023-10-24 23:26:00,SystemResetWarning,0825.5,5.00,000.00,028.7,027.7,000.0,037.1,030.5,19.3,0003.2,0031.12,0007.72,0004.86
2023-10-24 23:27:00,SystemResetWarning,0825.4,5.00,000.00,028.8,027.7,000.0,037.1,030.5,19.2,0003.0,0030.45,0007.75,0004.92
2023-10-24 23:28:00,SystemResetWarning,0825.4,4.99,000.00,028.8,027.5,000.0,037.1,030.6,19.2,0000.0,0031.46,0007.78,0004.95
2023-10-24 23:29:00,SystemResetWarning,0825.4,5.00,000.00,028.8,025.7,000.0,037.1,030.4,19.2,0003.7,0031.91,0007.78,0004.99
2023-10-24 23:30:00,SystemResetWarning,0825.4,5.02,000.00,028.7,024.8,000.0,037.0,030.3,19.3,0002.4,0032.48,0007.90,0005.06
2023-10-24 23:31:00,SystemResetWarning,0825.4,5.00,000.00,028.6,024.9,000.0,037.0,030.0,19.4,0002.1,0032.70,0008.02,0005.14
2023-10-24 23:32:00,SystemResetWarning,0825.4,5.00,000.00,028.5,025.2,000.0,037.0,030.0,19.6,0002.4,0032.58,0008.07,0005.21
2023-10-24 23:33:00,SystemResetWarning,0825.4,4.99,000.00,028.5,025.6,000.0,037.0,030.0,19.7,0003.8,0031.22,0008.11,0005.28
2023-10-24 23:34:00,SystemResetWarning,0825.4,5.00,000.00,028.5,026.0,000.0,037.0,030.1,19.8,0004.3,0030.72,0008.18,0005.36
2023-10-24 23:35:00,SystemResetWarning,0825.4,5.00,000.00,028.5,026.3,000.0,037.0,030.1,19.9,0004.6,0031.05,0008.29,0005.46
2023-10-24 23:36:00,SystemResetWarning,0825.4,5.00,000.00,028.5,026.6,000.0,037.0,030.2,19.8,0004.5,0031.80,0008.34,0005.54
2023-10-24 23:37:00,SystemResetWarning,0825.5,4.99,000.00,028.5,026.8,000.0,037.0,030.2,19.8,0002.7,0032.04,0008.40,0005.61
2023-10-24 23:38:00,SystemResetWarning,0825.5,4.99,000.00,028.6,027.0,000.0,037.0,030.3,19.6,0003.5,0032.69,0008.48,0005.66
2023-10-24 23:39:00,SystemResetWarning,0825.5,5.00,000.00,028.6,027.2,000.0,037.0,030.3,19.6,0002.9,0033.37,0008.62,0005.71
2023-10-24 23:40:00,SystemResetWarning,0825.5,5.00,000.00,028.6,027.3,000.0,037.0,030.3,19.5,0003.4,0033.54,0008.66,0005.74
2023-10-24 23:41:00,SystemResetWarning,0825.6,5.01,000.00,028.7,027.4,000.0,037.0,030.4,19.3,0002.8,0033.20,0008.61,0005.76
2023-10-24 23:42:00,SystemResetWarning,0825.6,5.01,000.00,028.7,027.5,000.0,037.1,030.4,19.2,0000.1,0034.17,0008.60,0005.75
2023-10-24 23:43:00,SystemResetWarning,0825.6,5.01,000.00,028.7,027.6,000.0,037.1,030.5,19.1,0000.0,0035.09,0008.73,0005.80
2023-10-24 23:44:00,SystemResetWarning,0825.6,4.99,000.00,028.8,027.7,000.0,037.1,030.5,19.1,0000.0,0034.96,0008.77,0005.83
2023-10-24 23:45:00,SystemResetWarning,0825.6,4.99,000.00,028.8,027.5,000.0,037.1,030.6,19.1,0000.0,0035.18,0008.82,0005.85
2023-10-24 23:46:00,SystemResetWarning,0825.7,4.99,000.00,028.8,025.9,000.0,037.1,030.4,19.1,0000.0,0034.36,0008.83,0005.85
2023-10-24 23:47:00,SystemResetWarning,0825.6,5.01,000.00,028.7,024.9,000.0,037.0,030.3,19.2,0000.0,0035.15,0008.89,0005.87
2023-10-24 23:48:00,SystemResetWarning,0825.6,5.01,000.00,028.6,024.9,000.0,037.0,030.0,19.3,0000.0,0035.11,0008.98,0005.89
2023-10-24 23:49:00,SystemResetWarning,0825.6,5.00,000.00,028.5,025.2,000.0,037.0,030.0,19.4,0000.0,0035.36,0009.07,0005.94
2023-10-24 23:50:00,SystemResetWarning,0825.5,4.99,000.00,028.5,025.6,000.0,037.0,030.0,19.5,0000.0,0035.22,0009.05,0005.98
2023-10-24 23:51:00,SystemResetWarning,0825.6,5.01,000.00,028.5,025.9,000.0,037.0,030.0,19.5,0000.0,0033.65,0009.15,0006.05
2023-10-24 23:52:00,SystemResetWarning,0825.6,5.00,000.00,028.5,026.3,000.0,037.0,030.1,19.6,0000.0,0033.48,0009.36,0006.13
2023-10-24 23:53:00,SystemResetWarning,0825.6,4.99,000.00,028.5,026.5,000.0,037.0,030.1,19.6,0000.0,0032.94,0009.43,0006.20
2023-10-24 23:54:00,SystemResetWarning,0825.5,4.99,000.00,028.5,026.8,000.0,037.0,030.2,19.5,0002.3,0032.57,0009.38,0006.21
2023-10-24 23:55:00,SystemResetWarning,0825.5,5.00,000.00,028.5,027.0,000.0,037.0,030.2,19.5,0004.2,0032.79,0009.37,0006.22
2023-10-24 23:56:00,SystemResetWarning,0825.6,5.00,000.00,028.6,027.1,000.0,037.0,030.3,19.5,0004.0,0032.83,0009.40,0006.25
2023-10-24 23:57:00,SystemResetWarning,0825.6,5.00,000.00,028.6,027.3,000.0,037.0,030.3,19.5,0004.7,0033.33,0009.34,0006.29
2023-10-24 23:58:00,SystemResetWarning,0825.6,5.01,000.00,028.6,027.4,000.0,037.0,030.4,19.4,0007.6,0032.56,0009.34,0006.32
2023-10-24 23:59:00,SystemResetWarning,0825.6,5.00,000.00,028.7,027.5,000.0,037.0,030.4,19.4,0002.5,0034.57,0009.30,0006.35
